Location: Unspecified
(0.0000°N, 0.0000°E)
Time: 20:04:10
(UTC+00:00)

CZ-3C DEB - Pass Details

Date: 08 March 2026
Orbit: 404 x 27665 km, 19.3° (Epoch: 21 April)

Event Time Altitude Azimuth Distance (km) Brightness Sun altitude
Rises 19:05:17 0° 277° (W) 9,133 ? -13.6°
Reaches altitude 10° 19:09:53 10° 280° (W) 9,384 ? -14.7°
Maximum altitude 21:49:49 61° 325° (NW) 27,211 ? -54.5°
Enters shadow 00:42:00 61° 308° (NW) 21,996 ? -80.9°
Exits shadow 01:53:00 82° 318° (NW) 10,409 ? -64.0°
Drops below altitude 10° 02:26:07 10° 110° (ESE) 5,618 ? -55.9°
Sets 02:28:23 0° 110° (ESE) 5,933 ? -55.3°
